TITAN 3C TRANSTAGE DEB, 1680

Orbit data source: Space-Track

TITAN 3C TRANSTAGE DEB, 1680 is space debris in LEO originally from a launch on Fri, 15 Oct 1965 UTC launched from the Air Force Eastern Test Range (AFETR). Debris objects in space refer to the collection of defunct objects orbiting the Earth. Examples of debris include non-operational satellites, rocket bodies, and fragments generated from explosions, collisions, or faulty payload assembly.

Loading next visibility...
Identifier
1680, 1965-082AT
Orbit
LEO
Last TLE update
11 hours ago
Origin
Manufacturer
Unknown
Mission
Spacecraft
Bus & Motor
Unknown
Mass
Unknown
Launch date (UTC)
1965-10-15 (60 years ago)
Launch vehicle
Unknown
Launch site
Air Force Eastern Test Range (AFETR)
Object type
Payload
Rocket body
Debris
Shape & HBR
Unknown
Radar Cross Section
2.100 m², Large (>1 m²)

Expand to show TLE details & history

TLE from 11 hours ago
0 TITAN 3C TRANSTAGE DEB
1 01680U 65082AT  25199.52865299  .00000314  00000-0  50423-4 0  9994
2 01680  32.2567 346.1068 0020312  97.8779 262.4176 14.65374064164677
Epoch: 2025-07-18T12:41Z
TLE epoch observation values (Epoch: 2025-07-18T12:41:15.618Z)
Latitude
0.00002°
Longitude
-140.78706°
Altitude
676.454 km
Speed
7.52 km/s
True Right ascension
23h 04m 25s
True Declination
0° 00' 00"
Sunlit
Object was in full shadow at epoch
Visualization orbit readout
Latitude
-29.77049°
Longitude
152.10467°
Altitude
696.814 km
Speed
7.501 km/s
Apparent Right ascension
21h 10m 38s
Apparent Declination
-43° 58' 24"
Sunlit
Object is in full shadow
Visualization observer readout
Local Sidereal Time
12:37:04
Azimuth
113.542° SE
Elevation
-52.029°
Doppler factor
1
Orbital elements
Apogee altitude
693.792 km
Perigee altitude
665.121 km
Semi-major axis
7,057.593 km
Eccentricity
0.00203
Inclination
32.2567°
RAAN
346.1068°
Arg. of periapsis
97.8779°
True anomaly
262.18695°
Mean anomaly
262.4176°
Eccentric anomaly
262.30227°
Mean motion
3.66065 °/min
Orbital period
98.34 mins
BSTAR
0.000050423
Loading maneuver chart data...
Loading SW <> Apogee altitude chart data...
|